Weather station in Munich

Current measurement: 22.1°C and 950.2hPa and 67.44% humidity and 868ppm CO2
(at 2024-04-17 19:40:00 )

Satellite image three years ago today.
https://api.nasa.gov/planetary/earth/imagery?

Previous Measurements

Show/Hide
IDdevice_idTemperaturePressureHumidityCO2Timestamp
14572weather8080722.1°C950.2hPa67.44%868ppm2024-04-17 19:40:00
14571weather8080722.5°C949.17hPa67.31%904ppm2024-04-17 18:38:27
14570weather8080722.5°C949.17hPa67.38%976ppm2024-04-17 18:23:04
14569weather8080722.3°C948.73hPa68.53%1118ppm2024-04-17 17:36:55
14568weather8080722.4°C948.74hPa68.57%1083ppm2024-04-17 17:21:32
14567weather8080722.6°C948.58hPa67.78%1108ppm2024-04-17 16:50:46
14566weather8080722.4°C948.55hPa67.9%1132ppm2024-04-17 16:20:01
14565weather8080722.2°C948.28hPa74.37%8ppm2024-04-17 15:18:29
14564weather8080722.2°C947.87hPa69.88%1061ppm2024-04-17 14:16:55
14563weather8080722.4°C947.77hPa69.83%1035ppm2024-04-17 14:01:32
14562weather8080722.4°C948.03hPa70.54%978ppm2024-04-17 12:59:59
14561weather8080722.1°C948.11hPa70.51%1021ppm2024-04-17 12:44:36
14560weather8080721.2°C948.49hPa71.4%943ppm2024-04-17 10:56:53
14559weather8080721.3°C948.39hPa71.5%911ppm2024-04-17 10:41:30
14558weather8080719.5°C947.8hPa74.89%502ppm2024-04-17 06:50:43
14557weather8080719.6°C947.68hPa74.91%518ppm2024-04-17 06:35:19
14556weather8080720°C946.66hPa76.26%548ppm2024-04-17 05:03:03
14555weather8080720.1°C946.59hPa76.22%543ppm2024-04-17 04:47:40
14554weather8080720.2°C946.61hPa76.71%556ppm2024-04-17 04:16:57
14553weather8080720.2°C946.63hPa77.16%562ppm2024-04-17 03:46:12
14552weather8080720.9°C947.59hPa78.99%634ppm2024-04-17 00:56:58
14551weather8080721°C947.42hPa78.98%613ppm2024-04-17 00:41:35
14550weather8080721.1°C947.22hPa79.42%643ppm2024-04-17 00:10:49
14549weather8080721.6°C947.09hPa78.74%663ppm2024-04-16 23:09:16
14548weather8080721.8°C947.23hPa78.75%696ppm2024-04-16 22:53:54
14547weather8080721.9°C947.4hPa77.85%709ppm2024-04-16 22:23:09
14546weather8080722°C947.46hPa77.77%719ppm2024-04-16 22:07:46
14545weather8080722.1°C947.23hPa78.42%771ppm2024-04-16 21:21:39
14544weather8080721.9°C947.07hPa78.46%762ppm2024-04-16 21:06:16
14543weather8080721.9°C946.55hPa77.59%856ppm2024-04-16 19:49:22
14542weather8080722°C946.3hPa77.43%834ppm2024-04-16 19:34:00
14541weather8080721.9°C946.22hPa76.79%871ppm2024-04-16 19:03:16
14540weather8080721.7°C946.43hPa75.98%735ppm2024-04-16 18:01:45
14539weather8080721.6°C946.5hPa75.96%926ppm2024-04-16 17:46:21
14538weather8080721.8°C946.28hPa74.45%819ppm2024-04-16 17:15:36
14537weather8080722.2°C946.44hPa70.61%717ppm2024-04-16 16:44:51
14536weather8080722.4°C946.54hPa62.39%369ppm2024-04-16 16:14:06
14535weather8080722.4°C946.76hPa62.38%563ppm2024-04-16 15:58:43
14534weather8080722.2°C946.69hPa63.01%577ppm2024-04-16 15:28:00
14533weather8080722.3°C949.48hPa64.79%749ppm2024-04-16 11:52:34
14532weather8080722.3°C949.69hPa64.8%884ppm2024-04-16 11:37:11
14531weather8080722.2°C949.74hPa66.51%1066ppm2024-04-16 10:51:02
14530weather8080722.1°C949.75hPa66.54%1059ppm2024-04-16 10:35:39
14529weather8080720.8°C950.01hPa67.16%646ppm2024-04-16 08:01:50
14528weather8080720.7°C950.05hPa67.15%629ppm2024-04-16 07:46:26
14527weather8080720.5°C949.89hPa67.78%449ppm2024-04-16 06:29:33
14526weather8080720.5°C949.98hPa67.79%623ppm2024-04-16 06:14:10
14525weather8080720.8°C949.53hPa68.7%706ppm2024-04-16 02:38:42
14524weather8080720.8°C949.48hPa68.75%687ppm2024-04-16 02:23:19
14523weather8080721°C949.58hPa69.5%745ppm2024-04-16 01:06:24
14522weather8080721.1°C949.36hPa69.47%774ppm2024-04-16 00:51:01
14521weather8080721.2°C947.89hPa69.79%839ppm2024-04-16 00:04:53
14520weather8080721.2°C946.88hPa69.81%866ppm2024-04-15 23:49:29
14519weather8080721.2°C946.54hPa70.31%937ppm2024-04-15 23:18:44
14518weather8080721.3°C946.39hPa70.87%842ppm2024-04-15 22:01:49
14517weather8080721.3°C946.45hPa70.87%872ppm2024-04-15 21:46:26
14516weather8080721.3°C946.31hPa70.93%931ppm2024-04-15 21:15:41
14515weather8080721.4°C946.02hPa70.76%1040ppm2024-04-15 20:44:57
14514weather8080721.3°C945.71hPa70.4%1166ppm2024-04-15 20:14:13
14513weather8080721.4°C945.61hPa70.09%1253ppm2024-04-15 19:43:26
14512weather8080721.5°C945.82hPa70.23%1318ppm2024-04-15 19:12:42
14511weather8080721.6°C946.07hPa74.36%103ppm2024-04-15 18:41:56
14510weather8080721.6°C946.12hPa70.44%1566ppm2024-04-15 18:26:33
14509weather8080721.7°C946.15hPa70.44%1591ppm2024-04-15 18:11:10
14508weather8080721.7°C946.66hPa70.68%1577ppm2024-04-15 17:40:25
14507weather8080721.6°C947.24hPa70.83%1512ppm2024-04-15 17:09:42
14506weather8080721.5°C950.87hPa69.63%905ppm2024-04-15 14:51:16
14505weather8080721.5°C950.8hPa69.65%1077ppm2024-04-15 14:35:53
14504weather8080721.3°C951.64hPa69.9%1005ppm2024-04-15 14:05:09
14503weather8080721.3°C952.57hPa69.74%882ppm2024-04-15 13:34:23
14502weather8080721.2°C953.03hPa68.93%755ppm2024-04-15 13:03:37
14501weather8080721.2°C953.22hPa68.17%712ppm2024-04-15 12:32:51
14500weather8080721.3°C953.25hPa68.31%746ppm2024-04-15 12:02:06
14499weather8080721.3°C953.15hPa68.58%796ppm2024-04-15 11:31:21
14498weather8080721.2°C953.44hPa67.85%631ppm2024-04-15 08:26:42
14497weather8080721.2°C953.71hPa67.87%599ppm2024-04-15 08:11:20
14496weather8080721.1°C953.64hPa66.94%420ppm2024-04-15 07:09:48
14495weather8080721.1°C953.38hPa66.95%521ppm2024-04-15 06:54:25
14494weather8080721.1°C953.53hPa66.92%506ppm2024-04-15 06:23:41
14493weather8080721.1°C953.51hPa67.12%521ppm2024-04-15 05:52:55
14492weather8080721.1°C953.32hPa67.47%517ppm2024-04-15 05:22:11
14491weather8080721.1°C953.21hPa67.81%517ppm2024-04-15 04:36:03
14490weather8080721.1°C953.22hPa67.83%512ppm2024-04-15 04:20:40
14489weather8080721.1°C953.7hPa68.24%534ppm2024-04-15 03:49:56
14488weather8080721.1°C953.96hPa68.85%525ppm2024-04-15 03:19:11
14487weather8080721.2°C954.15hPa68.84%541ppm2024-04-15 03:03:48
14486weather8080721.2°C954.77hPa69.69%462ppm2024-04-15 02:17:38
14485weather8080721.2°C955.03hPa69.64%549ppm2024-04-15 02:02:14
14484weather8080721.2°C955.53hPa69.99%570ppm2024-04-15 01:31:31
14483weather8080721.2°C955.79hPa70.34%567ppm2024-04-15 01:00:46
14482weather8080721.2°C956.16hPa70.58%561ppm2024-04-15 00:29:59
14481weather8080721.2°C956.41hPa70.58%577ppm2024-04-15 00:14:37
14480weather8080721.2°C956.66hPa70.77%577ppm2024-04-14 23:43:52
14479weather8080721.2°C957.08hPa71.46%596ppm2024-04-14 23:13:08
14478weather8080721.2°C957.7hPa72.15%632ppm2024-04-14 22:42:25
14477weather8080721.2°C958.09hPa73.6%744ppm2024-04-14 21:56:19
14476weather8080721.2°C958.16hPa73.48%765ppm2024-04-14 21:40:56
14475weather8080721.3°C958.33hPa72.63%852ppm2024-04-14 21:10:11
14474weather8080721.4°C958.3hPa65.41%745ppm2024-04-14 20:24:05
14473weather8080721.5°C958.17hPa65.43%867ppm2024-04-14 20:08:42
14472weather8080721.4°C958.26hPa64.29%629ppm2024-04-14 19:37:57
14471weather8080721.4°C958.64hPa63.64%491ppm2024-04-14 19:07:12
14470weather8080721.5°C959.35hPa63.19%477ppm2024-04-14 17:34:56
14469weather8080721.5°C959.43hPa63.21%468ppm2024-04-14 17:19:33
14468weather8080721.6°C959.64hPa63.23%465ppm2024-04-14 16:48:48
14467weather8080721.5°C959.9hPa63.31%475ppm2024-04-14 16:18:04
14466weather8080721.5°C960.61hPa63.65%425ppm2024-04-14 15:16:31
14465weather8080721.6°C960.76hPa63.65%478ppm2024-04-14 15:01:08
14464weather8080721.5°C961.78hPa64.91%485ppm2024-04-14 13:28:49
14463weather8080721.5°C962.13hPa64.89%489ppm2024-04-14 13:13:26
14462weather8080721.5°C962.64hPa65.27%538ppm2024-04-14 12:11:54
14461weather8080721.5°C962.79hPa65.25%513ppm2024-04-14 11:56:31
14460weather8080721.4°C962.93hPa65.22%530ppm2024-04-14 11:25:47
14459weather8080721.3°C962.98hPa66.36%692ppm2024-04-14 09:38:05
14458weather8080721.2°C963.23hPa66.35%678ppm2024-04-14 09:22:41
14457weather8080721°C963.18hPa66.46%652ppm2024-04-14 08:51:57
14456weather8080720.7°C963.39hPa67.24%699ppm2024-04-14 08:21:10
14455weather8080720.4°C963.23hPa67.39%689ppm2024-04-14 07:50:25
14454weather8080720.5°C963.08hPa67.59%702ppm2024-04-14 07:19:40
14453weather8080720.5°C963.08hPa67.62%718ppm2024-04-14 06:48:55
14452weather8080720.5°C963.11hPa67.65%737ppm2024-04-14 06:18:10
14451weather8080720.5°C962.89hPa67.79%760ppm2024-04-14 05:47:25
14450weather8080720.6°C963.02hPa67.91%767ppm2024-04-14 04:30:30
14449weather8080720.6°C963.16hPa67.92%791ppm2024-04-14 04:15:06
14448weather8080720.7°C963.2hPa67.85%782ppm2024-04-14 03:28:58
14447weather8080720.6°C963.3hPa67.84%809ppm2024-04-14 03:13:35
14446weather8080720.7°C963.47hPa67.97%836ppm2024-04-14 02:42:51
14445weather8080721.2°C965.2hPa65.98%706ppm2024-04-13 18:30:28
14444weather8080721.3°C965.14hPa65.96%709ppm2024-04-13 18:15:06
14443weather8080721.1°C965.36hPa66.03%587ppm2024-04-13 17:44:23
14442weather8080720.8°C965.67hPa65.95%487ppm2024-04-13 16:58:16
14441weather8080720.7°C965.84hPa65.93%597ppm2024-04-13 16:42:52
14440weather8080720.8°C966.18hPa65.87%589ppm2024-04-13 16:12:07
14439weather8080720.8°C966.61hPa65.97%601ppm2024-04-13 15:41:22
14438weather8080720.8°C966.81hPa65.85%611ppm2024-04-13 15:10:37
14437weather8080720.9°C967.17hPa65.73%601ppm2024-04-13 14:39:51
14436weather8080720.9°C967.35hPa65.76%602ppm2024-04-13 14:24:27
14435weather8080720.9°C967.63hPa65.69%608ppm2024-04-13 13:53:43
14434weather8080721°C968.13hPa65.71%619ppm2024-04-13 13:22:59
14433weather8080721°C968.55hPa65.69%628ppm2024-04-13 12:52:14
14432weather8080721.1°C968.98hPa65.78%640ppm2024-04-13 12:21:30
14431weather8080721.1°C969.28hPa65.58%650ppm2024-04-13 11:50:44
14430weather8080721.4°C969.64hPa64.9%651ppm2024-04-13 10:33:50
14429weather8080721.4°C969.69hPa64.9%651ppm2024-04-13 10:18:27
14428weather8080721.5°C969.69hPa64.66%651ppm2024-04-13 09:47:41
14427weather8080720.7°C969.77hPa65.69%647ppm2024-04-13 08:46:08
14426weather8080720.4°C969.76hPa65.68%625ppm2024-04-13 08:30:46
14425weather8080719.79°C969.92hPa66.42%603ppm2024-04-13 07:44:37
14424weather8080719.9°C969.99hPa66.48%620ppm2024-04-13 07:29:13
14423weather8080719.9°C969.88hPa66.42%603ppm2024-04-13 06:58:29
14422weather8080719.9°C969.71hPa66.34%590ppm2024-04-13 06:27:43
14421weather8080720°C969.32hPa65.92%578ppm2024-04-13 04:40:01
14420weather8080720°C969.42hPa65.93%568ppm2024-04-13 04:24:39
14419weather8080720.1°C969.5hPa65.95%566ppm2024-04-13 03:53:54
14418weather8080720.5°C970.66hPa65.67%535ppm2024-04-12 23:32:19
14417weather8080720.5°C970.75hPa65.68%592ppm2024-04-12 23:16:57
14416weather8080720.6°C970.55hPa65.59%588ppm2024-04-12 22:46:12
14415weather8080720.6°C970.67hPa65.61%580ppm2024-04-12 22:30:50
14414weather8080720.7°C970.65hPa65.48%579ppm2024-04-12 22:00:06
14413weather8080720.8°C970.55hPa65.45%580ppm2024-04-12 21:29:20
14412weather8080720.6°C971.19hPa67%520ppm2024-04-12 15:04:35
14411weather8080720.7°C971.24hPa67.01%522ppm2024-04-12 14:51:32
14410weather8080720.8°C971.45hPa65.12%524ppm2024-04-12 14:33:17
14409weather8080720.8°C971.55hPa65.13%517ppm2024-04-12 14:02:33
14408weather8080720.9°C971.83hPa65.09%527ppm2024-04-12 13:31:49
14407weather8080721°C972.02hPa64.94%523ppm2024-04-12 13:01:04
14406weather8080721.1°C972.41hPa65.05%529ppm2024-04-12 12:30:20
14405weather8080721.2°C972.46hPa65.07%526ppm2024-04-12 11:59:36
14404weather8080721.2°C972.75hPa64.48%507ppm2024-04-12 10:58:02
14403weather8080721.1°C972.63hPa64.47%544ppm2024-04-12 10:42:39
14402weather8080721.2°C972.71hPa64.75%551ppm2024-04-12 10:11:54
14401weather8080721.3°C972.95hPa63.9%551ppm2024-04-12 09:41:10
14400weather8080721.5°C972.97hPa63.65%563ppm2024-04-12 09:10:27
14399weather8080721.3°C973.14hPa64.09%561ppm2024-04-12 08:39:42
14398weather8080721.2°C973.09hPa64.11%561ppm2024-04-12 08:24:18
14397weather8080719.4°C972.77hPa66.65%521ppm2024-04-12 07:07:20
14396weather8080719.29°C972.66hPa66.69%538ppm2024-04-12 06:51:57
14395weather8080719.4°C972.67hPa66.8%546ppm2024-04-12 06:21:14
14394weather8080719.5°C972.48hPa66.6%507ppm2024-04-12 05:35:06
14393weather8080719.5°C972.44hPa66.56%515ppm2024-04-12 05:19:44
14392weather8080719.6°C972.67hPa66.62%514ppm2024-04-12 04:48:59
14391weather8080719.7°C972.4hPa66.58%523ppm2024-04-12 04:18:15
14390weather8080719.7°C972.4hPa66.64%528ppm2024-04-12 03:47:31
14389weather8080719.9°C972.79hPa66.23%561ppm2024-04-12 02:46:00
14388weather8080719.9°C972.59hPa66.19%543ppm2024-04-12 02:30:37
14387weather8080720°C972.57hPa65.95%551ppm2024-04-12 01:59:51
14386weather8080720.2°C972.77hPa65.69%441ppm2024-04-12 01:29:05
14385weather8080720.2°C972.88hPa65.69%562ppm2024-04-12 01:13:43
14384weather8080720.29°C972.65hPa65.41%561ppm2024-04-12 00:27:33
14383weather8080720.29°C972.69hPa65.42%570ppm2024-04-12 00:12:11
14382weather8080720.4°C972.7hPa65.33%569ppm2024-04-11 23:41:26
14381weather8080720.5°C972.76hPa65.26%577ppm2024-04-11 23:10:42
14380weather8080721°C972.68hPa65.37%557ppm2024-04-11 21:22:59
14379weather8080721.1°C972.45hPa65.43%592ppm2024-04-11 21:07:37
14378weather8080721°C971.8hPa65.65%571ppm2024-04-11 18:49:10
14377weather8080721°C971.79hPa65.63%563ppm2024-04-11 18:33:48
14376weather8080720.7°C971.83hPa66.03%576ppm2024-04-11 18:03:02
14375weather8080720.8°C971.67hPa66.07%555ppm2024-04-11 17:47:38
14374weather8080720.6°C972.2hPa66.53%533ppm2024-04-11 15:13:47
14373weather8080720.6°C972.28hPa66.51%556ppm2024-04-11 14:58:24
14372weather8080720.9°C972.74hPa66.02%576ppm2024-04-11 13:10:43
14371weather8080720.9°C972.73hPa65.97%566ppm2024-04-11 12:55:22
14370weather8080721°C972.58hPa66.13%579ppm2024-04-11 12:24:37
14369weather8080720.9°C972.78hPa66.44%590ppm2024-04-11 11:38:29
14368weather8080720.9°C972.59hPa66.39%568ppm2024-04-11 11:23:06
14367weather8080721.1°C972.49hPa66.22%489ppm2024-04-11 10:36:56
14366weather8080721.1°C972.52hPa66.25%591ppm2024-04-11 10:21:33
14365weather8080720.29°C971.35hPa67.54%406ppm2024-04-11 07:32:19
14364weather8080719.9°C971.21hPa67.54%569ppm2024-04-11 07:16:56
14363weather8080719.6°C970.92hPa68.05%452ppm2024-04-11 06:30:46
14362weather8080719.6°C970.86hPa68.06%573ppm2024-04-11 06:15:22
14361weather8080719.7°C970.72hPa68.24%574ppm2024-04-11 05:44:39
14360weather8080719.7°C970.94hPa68.45%589ppm2024-04-11 05:13:55
14359weather8080720°C971.18hPa68.59%480ppm2024-04-11 02:40:05
14358weather8080720°C971.21hPa68.62%628ppm2024-04-11 02:24:43
14357weather8080720.1°C971.51hPa68.87%665ppm2024-04-11 01:53:59
14356weather8080720.4°C970.92hPa69.51%913ppm2024-04-10 23:20:07
14355weather8080720.5°C970.77hPa69.53%917ppm2024-04-10 23:04:44
14354weather8080720.5°C970.55hPa69.83%1034ppm2024-04-10 22:33:59
14353weather8080720.8°C970.47hPa74.6%71ppm2024-04-10 21:32:29
14352weather8080720.9°C970.42hPa74.54%53ppm2024-04-10 21:17:04
14351weather8080720.9°C970.34hPa74.5%23ppm2024-04-10 21:01:42
14350weather8080720.9°C970.26hPa74.36%14ppm2024-04-10 20:46:19
14349weather8080721.1°C969.49hPa73.19%5ppm2024-04-10 19:29:23
14348weather8080721.1°C969.24hPa73.22%16ppm2024-04-10 19:14:00
14347weather8080721.2°C969.24hPa73.36%82ppm2024-04-10 18:58:36
14346weather8080721.3°C969.12hPa69.24%1376ppm2024-04-10 18:43:12
14345weather8080721.3°C968.87hPa69.22%1443ppm2024-04-10 18:27:48
14344weather8080721.3°C968.84hPa72.97%128ppm2024-04-10 17:57:03
14343weather8080721.3°C968.79hPa73.15%100ppm2024-04-10 17:41:39
14342weather8080721.3°C968.73hPa73.32%111ppm2024-04-10 17:26:17
14341weather8080721.5°C968.71hPa69.82%1308ppm2024-04-10 17:10:53
14340weather8080721.5°C968.57hPa69.81%1382ppm2024-04-10 16:55:29
14339weather8080721.5°C968.44hPa69.38%1313ppm2024-04-10 16:24:45
14338weather8080721.5°C968.28hPa68%1106ppm2024-04-10 15:38:36
14337weather8080721.6°C968.27hPa67.99%1093ppm2024-04-10 15:23:12
14336weather8080721.5°C968.33hPa66.83%968ppm2024-04-10 14:52:28
14335weather8080721.5°C968.45hPa64.63%764ppm2024-04-10 14:21:43
14334weather8080721.8°C968.51hPa69.03%1248ppm2024-04-10 12:34:05
14333weather8080721.8°C968.73hPa69.03%1224ppm2024-04-10 12:18:41
14332weather8080721.2°C968.31hPa69.8%1040ppm2024-04-10 10:46:21
14331weather8080721.3°C968.19hPa69.81%1073ppm2024-04-10 10:30:58
14330weather8080721.2°C967.01hPa67.88%548ppm2024-04-10 08:43:13
14329weather8080721.1°C966.64hPa67.91%622ppm2024-04-10 08:27:50
14328weather8080721.1°C966.29hPa67.96%589ppm2024-04-10 07:57:05
14327weather8080721.2°C965.91hPa67.94%587ppm2024-04-10 07:26:21
14326weather8080721.2°C965.42hPa67.99%583ppm2024-04-10 06:55:37
14325weather8080721.3°C965.3hPa68.13%581ppm2024-04-10 06:24:53
14324weather8080721.3°C964.68hPa67.99%568ppm2024-04-10 05:54:09
14323weather8080721.3°C964.59hPa68.01%570ppm2024-04-10 05:38:46
14322weather8080721.4°C964.3hPa68.09%586ppm2024-04-10 05:08:01
14321weather8080721.4°C964.39hPa68.19%599ppm2024-04-10 04:37:18
14320weather8080721.6°C963.78hPa68.17%595ppm2024-04-10 02:34:11
14319weather8080721.6°C963.71hPa68.21%635ppm2024-04-10 02:18:49
14318weather8080721.9°C963.13hPa67.88%682ppm2024-04-09 23:29:33
14317weather8080721.9°C963.19hPa67.86%712ppm2024-04-09 23:14:11
14316weather8080721.9°C962.95hPa67.76%732ppm2024-04-09 22:43:26
14315weather8080722°C962.7hPa66.85%637ppm2024-04-09 22:12:42
14314weather8080722.1°C962.69hPa66.82%763ppm2024-04-09 21:57:18
14313weather8080722.2°C962.55hPa67.91%817ppm2024-04-09 21:26:34
14312weather8080722.3°C961.82hPa70.33%1016ppm2024-04-09 20:55:50
14311weather8080721.7°C959.65hPa74.62%86ppm2024-04-09 18:52:45
14310weather8080722.8°C959.28hPa74.73%127ppm2024-04-09 18:37:21
14309weather8080722.8°C958.9hPa74.76%144ppm2024-04-09 18:21:59
14308weather8080722.8°C958.6hPa74.86%162ppm2024-04-09 18:06:35
14307weather8080722.8°C958.38hPa74.33%95ppm2024-04-09 17:51:12
14306weather8080722.9°C958.17hPa73.32%92ppm2024-04-09 17:35:49
14305weather8080722.9°C957.95hPa73.78%205ppm2024-04-09 17:20:26
14304weather8080723°C957.61hPa73.91%200ppm2024-04-09 17:05:02
14303weather8080723°C957.2hPa74.01%239ppm2024-04-09 16:49:37
14302weather8080723.1°C956.82hPa73.71%221ppm2024-04-09 16:34:14
14301weather8080723.1°C956.66hPa73.46%204ppm2024-04-09 16:18:51
14300weather8080723.1°C956.2hPa72.58%134ppm2024-04-09 16:03:28
14299weather8080723.2°C955.96hPa72.87%172ppm2024-04-09 15:48:05
14298weather8080723.2°C955.74hPa72.42%171ppm2024-04-09 15:32:41
14297weather8080723.2°C955.61hPa71.98%127ppm2024-04-09 15:17:18
14296weather8080723.3°C955.12hPa71.38%84ppm2024-04-09 15:01:54
14295weather8080723.4°C954.74hPa71.32%74ppm2024-04-09 14:46:31
14294weather8080723.3°C953.99hPa71.04%95ppm2024-04-09 14:31:06
14293weather8080723.4°C953.18hPa67.37%1445ppm2024-04-09 14:15:44
14292weather8080723.4°C953.04hPa67.43%1463ppm2024-04-09 14:00:20
14291weather8080723.3°C952.85hPa67.06%1310ppm2024-04-09 13:29:37
14290weather8080723°C951.88hPa65.68%1039ppm2024-04-09 11:26:30
14289weather8080722.9°C951.68hPa65.68%1110ppm2024-04-09 11:11:06
14288weather8080722.8°C951.58hPa66.35%1122ppm2024-04-09 10:40:22
14287weather8080722.7°C950.82hPa66.56%1077ppm2024-04-09 10:09:37
14286weather8080722.7°C950.38hPa65.63%919ppm2024-04-09 09:38:52
14285weather8080722.6°C950.15hPa66.51%858ppm2024-04-09 09:08:06
14284weather8080722.6°C949.93hPa66.51%837ppm2024-04-09 08:52:42
14283weather8080722.5°C949.66hPa66.14%679ppm2024-04-09 08:21:57
14282weather8080722.4°C948.8hPa67.51%786ppm2024-04-09 03:45:01
14281weather8080722.4°C948.69hPa67.48%796ppm2024-04-09 03:29:38
14280weather8080722.4°C948.94hPa69.25%912ppm2024-04-09 02:12:42
14279weather8080722.4°C949.14hPa69.26%888ppm2024-04-09 01:57:19
14278weather8080722.5°C949.56hPa69.84%971ppm2024-04-09 01:26:34
14277weather8080722.4°C950.26hPa67.03%1281ppm2024-04-08 23:23:28
14276weather8080722.4°C950.47hPa67.06%1300ppm2024-04-08 23:08:05
14275weather8080722.4°C950.76hPa66.63%1251ppm2024-04-08 22:21:58
14274weather8080722.4°C950.83hPa66.62%1250ppm2024-04-08 22:06:35
14273weather8080722.5°C951.07hPa65.13%1097ppm2024-04-08 21:05:05
14272weather8080722.4°C951.22hPa65.14%1087ppm2024-04-08 20:49:43
14271weather8080722.3°C950.97hPa63.42%700ppm2024-04-08 20:18:58
14270weather8080722.3°C951.12hPa62.25%650ppm2024-04-08 19:32:48
14269weather8080722.3°C951.22hPa62.28%623ppm2024-04-08 19:17:25
14268weather8080722.3°C951.24hPa61.85%634ppm2024-04-08 18:46:41
14267weather8080722.3°C951.22hPa61.4%619ppm2024-04-08 18:15:57
14266weather8080722.3°C951.09hPa61.11%579ppm2024-04-08 17:45:11
14265weather8080722.3°C951.14hPa61.53%591ppm2024-04-08 17:14:25
14264weather8080722.3°C951.19hPa61.54%800ppm2024-04-08 16:59:02
14263weather8080722.3°C951.6hPa62.04%1061ppm2024-04-08 16:28:18
14262weather8080722.3°C951.58hPa61.54%502ppm2024-04-08 15:57:34
14261weather8080722.3°C951.9hPa62.4%537ppm2024-04-08 15:26:50
14260weather8080722.3°C952.15hPa63.73%628ppm2024-04-08 14:56:04
14259weather8080722.3°C952.38hPa65.3%786ppm2024-04-08 14:25:20
14258weather8080722.1°C953.18hPa65.96%815ppm2024-04-08 12:52:59
14257weather8080722.1°C953.25hPa65.96%799ppm2024-04-08 12:37:36
14256weather8080722°C953.79hPa66.22%885ppm2024-04-08 12:06:51
14255weather8080721.9°C954.2hPa66.09%692ppm2024-04-08 11:36:06
14254weather8080721.8°C954.4hPa66.01%684ppm2024-04-08 11:05:23
14253weather8080721.7°C954.46hPa66.04%671ppm2024-04-08 10:34:38
14252weather8080721.6°C954.5hPa67.07%544ppm2024-04-08 09:48:30
14251weather8080721.6°C954.44hPa67.07%700ppm2024-04-08 09:33:07
14250weather8080721.6°C954.52hPa66.99%695ppm2024-04-08 09:02:22
14249weather8080721.5°C954.35hPa66.9%708ppm2024-04-08 08:31:37
14248weather8080721.5°C953.84hPa66.58%738ppm2024-04-08 06:59:19
14247weather8080721.6°C953.79hPa66.57%730ppm2024-04-08 06:43:56
14246weather8080721.6°C953.06hPa66.43%762ppm2024-04-08 05:11:39
14245weather8080721.6°C953.16hPa66.4%765ppm2024-04-08 04:56:16
14244weather8080721.6°C953.29hPa66.32%773ppm2024-04-08 04:25:30
14243weather8080721.6°C953.52hPa66.3%797ppm2024-04-08 03:54:44
14242weather8080721.6°C953.86hPa66.4%822ppm2024-04-08 03:23:59
14241weather8080721.6°C954.32hPa66.22%888ppm2024-04-08 02:22:29
14240weather8080721.7°C954.27hPa66.24%870ppm2024-04-08 02:07:06
14239weather8080721.7°C955.38hPa65.77%750ppm2024-04-08 00:34:46
14238weather8080721.8°C955.55hPa65.76%945ppm2024-04-08 00:19:24
14237weather8080721.8°C955.84hPa65.66%956ppm2024-04-07 23:48:39
14236weather8080721.8°C956.34hPa65.22%935ppm2024-04-07 23:17:53
14235weather8080721.8°C956.34hPa65.17%928ppm2024-04-07 22:47:10
14234weather8080721.9°C956.41hPa65.24%893ppm2024-04-07 22:01:00
14233weather8080721.9°C956.59hPa65.19%1025ppm2024-04-07 21:45:37
14232weather8080721.9°C957hPa63.73%677ppm2024-04-07 20:59:29
14231weather8080721.9°C957.09hPa63.75%752ppm2024-04-07 20:44:07
14230weather8080721.8°C957.32hPa63.16%595ppm2024-04-07 20:13:22
14229weather8080722.1°C957.91hPa61.04%717ppm2024-04-07 18:41:05
14228weather8080722°C957.9hPa61.01%684ppm2024-04-07 18:25:43
14227weather8080722°C958.04hPa60.91%656ppm2024-04-07 17:54:58
14226weather8080722°C958.75hPa62.41%486ppm2024-04-07 16:53:25
14225weather8080722°C958.85hPa62.39%525ppm2024-04-07 16:38:02
14224weather8080722°C959.08hPa62.54%574ppm2024-04-07 16:07:17
14223weather8080722°C959.42hPa63.04%665ppm2024-04-07 15:36:33
14222weather8080721.9°C960.45hPa60.14%417ppm2024-04-07 13:48:50
14221weather8080721.9°C960.42hPa60.14%539ppm2024-04-07 13:33:27
14220weather8080721.8°C960.65hPa60.43%533ppm2024-04-07 13:02:43
14219weather8080721.7°C960.67hPa63.06%559ppm2024-04-07 12:31:58
14218weather8080721.5°C960.68hPa69.38%605ppm2024-04-07 12:01:11
14217weather8080721.3°C960.67hPa69.65%623ppm2024-04-07 11:30:27
14216weather8080721°C958.22hPa75.03%952ppm2024-04-07 04:04:14
14215weather8080721°C958.5hPa75.03%978ppm2024-04-07 03:48:50
14214weather8080721°C958.31hPa75.56%1003ppm2024-04-07 03:18:05
14213weather8080721°C958.09hPa75.67%1041ppm2024-04-07 02:47:21
14212weather8080721.5°C958.21hPa76.29%1138ppm2024-04-07 00:44:13
14211weather8080721.5°C958.24hPa76.25%1148ppm2024-04-07 00:28:51
14210weather8080721.5°C958.25hPa76.14%1186ppm2024-04-06 23:58:07
14209weather8080721.5°C958.32hPa76.77%1226ppm2024-04-06 23:27:22
14208weather8080721.5°C958.31hPa76.61%1275ppm2024-04-06 22:56:37
14207weather8080721.7°C958.12hPa75.35%1377ppm2024-04-06 21:55:05
14206weather8080721.7°C958.22hPa75.37%1411ppm2024-04-06 21:39:42
14205weather8080721.6°C958.16hPa74.86%1588ppm2024-04-06 21:08:56
14204weather8080721.6°C957.99hPa73.35%1322ppm2024-04-06 20:38:12
14203weather8080721.6°C957.65hPa71.24%993ppm2024-04-06 20:07:27
14202weather8080721.6°C957.99hPa70.23%1072ppm2024-04-06 18:19:44
14201weather8080721.7°C957.85hPa70.41%1133ppm2024-04-06 18:04:23
14200weather8080721.9°C957.85hPa62.01%708ppm2024-04-06 17:33:37
14199weather8080722°C959.06hPa64.8%586ppm2024-04-06 14:44:22
14198weather8080722°C959.01hPa64.79%619ppm2024-04-06 14:28:59
14197weather8080722°C959.04hPa66.17%694ppm2024-04-06 13:58:13
14196weather8080722.1°C959.6hPa68.19%1042ppm2024-04-06 12:41:21
14195weather8080722°C959.53hPa68.16%1048ppm2024-04-06 12:25:57
14194weather8080722°C959.58hPa71.08%37ppm2024-04-06 11:55:11
14193weather8080721.9°C959.82hPa71.06%9ppm2024-04-06 11:39:48
14192weather8080721.9°C959.82hPa71.24%72ppm2024-04-06 11:24:25
14191weather8080721.9°C960.01hPa71.46%87ppm2024-04-06 11:09:01
14190weather8080721.9°C959.89hPa72.07%206ppm2024-04-06 10:53:38
14189weather8080721.9°C959.75hPa71.18%404ppm2024-04-06 10:38:14
14188weather8080720.9°C958.92hPa65.6%557ppm2024-04-06 06:47:26
14187weather8080721°C958.94hPa65.61%552ppm2024-04-06 06:32:03
14186weather8080721°C959.06hPa65.77%557ppm2024-04-06 06:01:18
14185weather8080721°C958.51hPa66.25%501ppm2024-04-06 03:58:11
14184weather8080721°C958.57hPa66.26%565ppm2024-04-06 03:42:49
14183weather8080721°C958.63hPa66.63%540ppm2024-04-06 03:12:03
14182weather8080721.1°C958.63hPa66.64%577ppm2024-04-06 02:56:40
14181weather8080721.2°C958.68hPa68.15%749ppm2024-04-06 00:53:33
14180weather8080721.2°C958.7hPa68.09%772ppm2024-04-06 00:38:11
14179weather8080721.2°C958.7hPa68.69%872ppm2024-04-06 00:07:26
14178weather8080721.2°C958.51hPa69.66%1045ppm2024-04-05 23:36:41
14177weather8080721.2°C958.41hPa70.6%1167ppm2024-04-05 23:05:57
14176weather8080721.1°C958.09hPa74.41%27ppm2024-04-05 22:35:13
14175weather8080721.2°C957.88hPa73.49%43ppm2024-04-05 22:19:50
14174weather8080721.2°C957.88hPa69.21%1210ppm2024-04-05 22:04:26
14173weather8080721.2°C958.09hPa69.21%1313ppm2024-04-05 21:49:03
14172weather8080721.2°C957.94hPa68.64%1048ppm2024-04-05 21:18:19
14171weather8080721.1°C957.93hPa68.65%986ppm2024-04-05 21:02:56
14170weather8080721.2°C957.8hPa67.37%912ppm2024-04-05 20:32:09
14169weather8080721.2°C955.95hPa67.1%669ppm2024-04-05 17:12:07
14168weather8080721.3°C955.89hPa67.07%645ppm2024-04-05 16:56:44
14167weather8080721.4°C956.84hPa66.59%689ppm2024-04-05 14:22:53
14166weather8080721.5°C957.19hPa66.57%655ppm2024-04-05 14:07:30
14165weather8080721.4°C957.76hPa66.96%598ppm2024-04-05 13:21:21
14164weather8080721.4°C957.94hPa66.92%705ppm2024-04-05 13:05:57
14163weather8080721.4°C957.99hPa66.92%737ppm2024-04-05 12:35:14
14162weather8080721.6°C958.03hPa66.19%730ppm2024-04-05 12:04:29
14161weather8080721.6°C958.14hPa65.69%734ppm2024-04-05 10:47:35
14160weather8080721.6°C958.23hPa65.71%720ppm2024-04-05 10:32:12
14159weather8080721.2°C958.09hPa66.66%709ppm2024-04-05 07:42:55
14158weather8080720.9°C958.04hPa66.65%668ppm2024-04-05 07:27:31
14157weather8080720.5°C958.25hPa67.59%651ppm2024-04-05 06:56:46
14156weather8080720.6°C958.04hPa67.6%662ppm2024-04-05 06:26:02
14155weather8080720.6°C958.01hPa67.48%497ppm2024-04-05 05:39:53
14154weather8080720.7°C958.07hPa67.45%675ppm2024-04-05 05:24:30
14153weather8080720.7°C958.18hPa67.29%704ppm2024-04-05 04:53:45
14152weather8080720.8°C958.24hPa67.29%688ppm2024-04-05 04:38:23
14151weather8080720.8°C958.22hPa67.38%705ppm2024-04-05 04:07:39
14150weather8080721.7°C958.85hPa66.27%854ppm2024-04-05 00:16:50
14149weather8080721.7°C958.39hPa66.25%830ppm2024-04-05 00:01:27
14148weather8080722.7°C956.57hPa63.13%739ppm2024-04-04 20:56:50
14147weather8080722.7°C956.43hPa63.1%728ppm2024-04-04 20:41:28
14146weather8080722.7°C955.83hPa63.81%630ppm2024-04-04 19:39:56
14145weather8080722.7°C955.8hPa63.85%720ppm2024-04-04 19:24:33
14144weather8080722.6°C955.88hPa63.59%669ppm2024-04-04 18:53:49
14143weather8080722.6°C956.07hPa63.86%748ppm2024-04-04 18:23:04
14142weather8080722.7°C956.14hPa63.88%748ppm2024-04-04 18:07:41
14141weather8080722.7°C955.09hPa63.43%732ppm2024-04-04 16:20:01
14140weather8080722.7°C955.33hPa63.44%742ppm2024-04-04 16:04:37
14139weather8080722.7°C955.39hPa63.88%768ppm2024-04-04 15:33:53
14138weather8080722.9°C955.36hPa63.79%829ppm2024-04-04 15:03:09
14137weather8080722.9°C955.38hPa63.84%863ppm2024-04-04 14:47:45
14136weather8080722.7°C955.19hPa64.75%920ppm2024-04-04 14:17:00
14135weather8080722.6°C955.42hPa64.67%966ppm2024-04-04 13:46:17
14134weather8080722.7°C955.43hPa64.4%900ppm2024-04-04 13:15:31
14133weather8080721.1°C955.72hPa68.06%908ppm2024-04-04 10:41:37
14132weather8080721.1°C955.62hPa68.02%927ppm2024-04-04 10:26:15
14131weather8080720.29°C955.72hPa65.87%476ppm2024-04-04 07:52:22
14130weather8080720.2°C955.72hPa65.87%482ppm2024-04-04 07:36:58
14129weather8080719.79°C955.51hPa66.44%483ppm2024-04-04 07:06:12
14128weather8080719.9°C955.54hPa66.51%497ppm2024-04-04 06:35:28
14127weather8080720.29°C954.8hPa65.33%309ppm2024-04-04 04:01:35
14126weather8080720.4°C954.91hPa65.32%463ppm2024-04-04 03:46:12
14125weather8080720.5°C954.87hPa65.41%474ppm2024-04-04 03:15:28
14124weather8080720.6°C954.63hPa65.5%481ppm2024-04-04 02:44:44
14123weather8080720.7°C954.52hPa65.52%478ppm2024-04-04 02:29:22
14122weather8080720.9°C954.85hPa65.67%490ppm2024-04-04 01:58:36
14121weather8080721°C954.92hPa65.95%486ppm2024-04-04 01:27:51
14120weather8080721.2°C954.76hPa66.15%493ppm2024-04-04 00:57:06
14119weather8080721.4°C954.87hPa66.65%507ppm2024-04-04 00:26:22
14118weather8080721.6°C954.59hPa67.38%424ppm2024-04-03 23:55:38
14117weather8080721.7°C954.79hPa67.39%548ppm2024-04-03 23:40:15
14116weather8080721.9°C954.71hPa67.98%598ppm2024-04-03 23:09:29
14115weather8080722.1°C954.63hPa68.28%680ppm2024-04-03 22:38:44
14114weather8080721.3°C951.52hPa67.98%834ppm2024-04-03 12:07:47
14113weather8080721.1°C951.42hPa68.02%849ppm2024-04-03 11:52:25
14112weather8080721°C951.44hPa72.95%715ppm2024-04-03 10:50:55
14111weather8080721°C951.48hPa73%936ppm2024-04-03 10:35:32
14110weather8080720.8°C951.08hPa67.5%829ppm2024-04-03 10:04:47
14109weather8080720.7°C950.92hPa67.41%859ppm2024-04-03 09:34:02
14108weather8080720.6°C950.95hPa67.4%875ppm2024-04-03 09:18:39
14107weather8080720.29°C951.1hPa70.59%1012ppm2024-04-03 08:17:05
14106weather8080720.2°C951.05hPa70.62%1020ppm2024-04-03 08:01:43
14105weather8080719.9°C951.15hPa67.1%813ppm2024-04-03 07:30:59
14104weather8080719.7°C951.31hPa67.14%745ppm2024-04-03 05:58:38
14103weather8080719.7°C951.62hPa67.12%737ppm2024-04-03 05:43:15
14102weather8080720.2°C954.07hPa66.03%767ppm2024-04-03 01:52:28
14101weather8080720.29°C954.2hPa66%754ppm2024-04-03 01:37:04
14100weather8080721.2°C954.29hPa63.74%670ppm2024-04-02 23:18:35
14099weather8080721.6°C954.26hPa63.71%681ppm2024-04-02 23:03:12
14098weather8080719.9°C954.27hPa61.59%710ppm2024-04-02 22:01:38
14097weather8080720.6°C954.27hPa61.47%804ppm2024-04-02 21:46:15
14096weather8080722.8°C954.15hPa66%1290ppm2024-04-02 21:15:30
14095weather8080722.8°C953.45hPa65.58%1006ppm2024-04-02 19:27:48
14094weather8080722.7°C953.48hPa65.6%1225ppm2024-04-02 19:12:25
14093weather8080721.9°C953.65hPa65.55%909ppm2024-04-02 17:24:41
14092weather8080721.7°C953.79hPa65.56%991ppm2024-04-02 17:09:18
14091weather8080721.8°C953.47hPa63.86%562ppm2024-04-02 15:36:58
14090weather8080721.9°C953.65hPa63.83%560ppm2024-04-02 15:21:35
14089weather8080721.7°C953.57hPa63.94%580ppm2024-04-02 11:30:46
14088weather8080721.8°C953.55hPa63.96%634ppm2024-04-02 11:15:23
14087weather8080721.6°C953.35hPa64.85%671ppm2024-04-02 10:44:37
14086weather8080721.8°C953.02hPa63.27%489ppm2024-04-02 10:13:53
14085weather8080721.9°C952.78hPa63.32%482ppm2024-04-02 09:58:30
14084weather8080721.6°C952.48hPa63.93%502ppm2024-04-02 09:27:47
14083weather8080721.9°C951.94hPa64%507ppm2024-04-02 08:41:38
14082weather8080721.7°C951.83hPa64.01%510ppm2024-04-02 08:26:15
14081weather8080719.29°C950.88hPa67.71%351ppm2024-04-02 06:23:10
14080weather8080719.4°C950.81hPa67.7%523ppm2024-04-02 06:07:47
14079weather8080719.4°C950.4hPa67.9%533ppm2024-04-02 05:37:02
14078weather8080719.5°C950.16hPa67.97%539ppm2024-04-02 05:06:17
14077weather8080719.6°C949.9hPa67.93%548ppm2024-04-02 04:35:32
14076weather8080719.7°C949.52hPa67.89%562ppm2024-04-02 04:04:47
14075weather8080719.79°C949.23hPa68.12%587ppm2024-04-02 03:34:02
14074weather8080719.9°C948.71hPa67.9%602ppm2024-04-02 03:03:16
14073weather8080720.4°C947.83hPa67.82%755ppm2024-04-02 01:30:59
14072weather8080720.4°C947.69hPa67.81%729ppm2024-04-02 01:15:36
14071weather8080721.2°C946.96hPa67.87%942ppm2024-04-01 22:41:45
14070weather8080721.3°C946.79hPa67.87%1006ppm2024-04-01 22:26:22
14069weather8080721.8°C946.68hPa70.19%1328ppm2024-04-01 21:55:37
14068weather8080721.8°C946.43hPa68.48%1046ppm2024-04-01 21:24:54
14067weather8080721.8°C946.25hPa67.71%837ppm2024-04-01 20:54:08
14066weather8080721.8°C945.29hPa67.59%718ppm2024-04-01 18:35:39
14065weather8080721.8°C945hPa67.57%715ppm2024-04-01 18:20:16
14064weather8080721.7°C945.17hPa68.1%764ppm2024-04-01 17:49:31
14063weather8080721.4°C944.88hPa69.12%762ppm2024-04-01 17:18:45
14062weather8080721.2°C944.81hPa69.04%852ppm2024-04-01 17:03:22
14061weather8080721.5°C944.65hPa67.61%914ppm2024-04-01 16:32:36
14060weather8080721.5°C944.62hPa67.63%939ppm2024-04-01 16:17:13
14059weather8080721.7°C943.93hPa69.07%1035ppm2024-04-01 15:00:18
14058weather8080721.8°C943.53hPa69.03%1060ppm2024-04-01 14:44:55
14057weather8080721.9°C943.01hPa68.4%930ppm2024-04-01 14:14:11
14056weather8080722°C943.01hPa68.39%1011ppm2024-04-01 13:58:47
14055weather8080721.8°C939.8hPa65.38%608ppm2024-04-01 10:23:21
14054weather8080721.8°C938.94hPa65.37%626ppm2024-04-01 10:07:57
14053weather8080721.7°C937.06hPa65.47%651ppm2024-04-01 09:37:12
14052weather8080721.7°C934.96hPa66.47%700ppm2024-04-01 09:06:28
14051weather8080721.7°C934.35hPa65.68%704ppm2024-04-01 08:35:43
14050weather8080721.2°C934hPa67.53%779ppm2024-04-01 07:49:33
14049weather8080721°C933.97hPa67.54%771ppm2024-04-01 07:34:09
14048weather8080720.2°C934.02hPa68.94%866ppm2024-04-01 07:03:24
14047weather8080720.2°C933.81hPa69.59%920ppm2024-04-01 06:32:39
14046weather8080720.29°C933.58hPa70.29%869ppm2024-04-01 06:01:54
14045weather8080720.29°C933.67hPa70.31%1057ppm2024-04-01 05:46:30
14044weather8080720.9°C937.17hPa69.52%1013ppm2024-04-01 01:40:17
14043weather8080721°C937.63hPa69.47%1009ppm2024-04-01 01:24:54
14042weather8080721.1°C938.53hPa67.7%535ppm2024-04-01 00:23:21
14041weather8080721.2°C938.64hPa67.74%664ppm2024-04-01 00:07:58
14040weather8080721.4°C938.91hPa67.47%682ppm2024-03-31 23:37:13
14039weather8080721.4°C939.3hPa67.87%695ppm2024-03-31 23:06:29
14038weather8080721.5°C939.39hPa66.38%634ppm2024-03-31 21:49:33
14037weather8080721.4°C939.32hPa66.37%654ppm2024-03-31 21:34:10
14036weather8080721.5°C939.13hPa66.66%682ppm2024-03-31 21:03:25
14035weather8080721.6°C939hPa66.41%676ppm2024-03-31 20:32:40
14034weather8080721.7°C939.05hPa66.43%696ppm2024-03-31 20:17:16
14033weather8080721.6°C939.19hPa66.85%681ppm2024-03-31 19:00:21
14032weather8080721.6°C939.08hPa66.85%668ppm2024-03-31 18:44:58
14031weather8080721.4°C938.79hPa67.14%610ppm2024-03-31 18:14:13
14030weather8080721.7°C938.06hPa66.57%618ppm2024-03-31 16:11:12
14029weather8080721.7°C938.42hPa66.55%595ppm2024-03-31 15:55:49
14028weather8080721.5°C938.53hPa66.61%559ppm2024-03-31 15:25:04
14027weather8080721.3°C938.7hPa66.61%552ppm2024-03-31 15:09:42
14026weather8080721.5°C938.93hPa66.45%546ppm2024-03-31 14:38:57
14025weather8080721.6°C938.93hPa66.26%552ppm2024-03-31 14:08:12
14024weather8080721.6°C939.37hPa65.98%553ppm2024-03-31 13:37:28
14023weather8080721.7°C939.36hPa66.15%544ppm2024-03-31 13:06:45
14022weather8080721.9°C939.97hPa65.58%551ppm2024-03-31 12:05:14
14021weather8080721.8°C940.21hPa65.55%548ppm2024-03-31 11:49:52
14020weather8080721.7°C940.76hPa65.46%332ppm2024-03-31 10:17:35
14019weather8080721.8°C940.63hPa65.48%533ppm2024-03-31 10:02:12
14018weather8080721.8°C941.14hPa65.07%517ppm2024-03-31 09:31:28
14017weather8080721.7°C941.28hPa65.08%533ppm2024-03-31 09:16:04
14016weather8080720°C941.21hPa67.96%517ppm2024-03-31 07:59:08
14015weather8080720°C941.21hPa67.91%523ppm2024-03-31 07:43:46
14014weather8080720°C940.9hPa67.96%501ppm2024-03-31 07:13:02
14013weather8080720°C940.82hPa68%534ppm2024-03-31 06:57:39
14012weather8080721.4°C939.66hPa67.22%716ppm2024-03-30 15:20:29
14011weather8080721.5°C939.58hPa67.24%725ppm2024-03-30 15:05:05
14010weather8080721.5°C939.73hPa67.42%719ppm2024-03-30 14:34:21
14009weather8080721.8°C941.31hPa65.7%551ppm2024-03-30 09:57:26
14008weather8080721.8°C941.26hPa65.67%578ppm2024-03-30 09:42:03
14007weather8080720.8°C941.63hPa67.56%544ppm2024-03-30 08:40:30
14006weather8080720.2°C941.58hPa67.55%567ppm2024-03-30 08:25:06
14005weather8080719.5°C941.87hPa68.13%557ppm2024-03-30 07:54:20
14004weather8080719.5°C941.86hPa68.22%552ppm2024-03-30 07:23:36
14003weather8080719.4°C942.26hPa68.34%549ppm2024-03-30 06:52:50
14002weather8080719.5°C942.62hPa68.41%557ppm2024-03-30 06:22:07
14001weather8080719.5°C942.78hPa68.58%564ppm2024-03-30 05:51:21
14000weather8080720.2°C942.8hPa68.36%552ppm2024-03-29 23:23:44
13999weather8080720.2°C942.68hPa68.39%707ppm2024-03-29 23:08:21
13998weather8080720.1°C942.42hPa68.76%697ppm2024-03-29 21:51:24
13997weather8080720.1°C942.28hPa68.73%699ppm2024-03-29 21:36:01
13996weather8080720.2°C942.32hPa68.86%730ppm2024-03-29 21:05:15
13995weather8080720.2°C941.12hPa69.24%699ppm2024-03-29 18:46:48
13994weather8080720.2°C940.9hPa69.23%772ppm2024-03-29 18:31:24
13993weather8080720.1°C940.95hPa69.52%756ppm2024-03-29 18:00:40
13992weather8080719.9°C940.91hPa69.5%713ppm2024-03-29 17:29:55
13991weather8080720°C940.86hPa69.63%721ppm2024-03-29 16:59:09
13990weather8080720.2°C940.3hPa69.36%708ppm2024-03-29 14:40:43
13989weather8080720.29°C940.47hPa69.35%722ppm2024-03-29 14:25:21
13988weather8080720.9°C941.99hPa67.58%808ppm2024-03-29 11:05:19
13987weather8080721°C942.09hPa67.59%803ppm2024-03-29 10:49:55
13986weather8080718.79°C941.91hPa70.3%640ppm2024-03-29 07:14:29
13985weather8080718.1°C941.54hPa70.3%650ppm2024-03-29 06:59:05
13984weather8080718.5°C942.96hPa70.11%583ppm2024-03-29 03:08:16
13983weather8080718.6°C943.05hPa70.05%761ppm2024-03-29 02:52:53
13982weather8080718.7°C943.56hPa69.94%789ppm2024-03-29 02:22:09
13981weather8080719°C944.14hPa69.62%830ppm2024-03-29 01:51:25
13980weather8080719.1°C944.57hPa69.62%871ppm2024-03-29 01:20:41
13979weather8080719.29°C944.88hPa69.6%922ppm2024-03-29 00:49:57
13978weather8080720°C944.55hPa69.3%1107ppm2024-03-28 23:17:39
13977weather8080720.2°C944.34hPa69.27%1121ppm2024-03-28 23:02:16
13976weather8080721.6°C940.25hPa67.87%740ppm2024-03-28 17:38:39
13975weather8080721.4°C940.37hPa67.9%768ppm2024-03-28 17:23:15
13974weather8080721.5°C939.48hPa68.36%746ppm2024-03-28 15:50:59
13973weather8080721.4°C939.55hPa68.38%779ppm2024-03-28 15:35:36
13972weather8080721.6°C939.27hPa68.24%776ppm2024-03-28 15:04:51
13971weather8080721.7°C939.05hPa68.54%799ppm2024-03-28 14:34:07
13970weather8080721.5°C938.67hPa69.19%859ppm2024-03-28 14:03:22
13969weather8080721.4°C938.69hPa69.91%964ppm2024-03-28 13:32:37
13968weather8080721.3°C934.44hPa75.69%9ppm2024-03-28 11:14:13
13967weather8080721.4°C932.43hPa70.73%1113ppm2024-03-28 09:57:13
13966weather8080721.3°C932.17hPa70.75%1115ppm2024-03-28 09:41:50
13965weather8080720.5°C932.57hPa71.37%741ppm2024-03-28 07:38:43
13964weather8080720°C932.44hPa71.37%755ppm2024-03-28 07:23:20
13963weather8080719.2°C932.8hPa73.19%919ppm2024-03-28 05:20:14
13962weather8080719.29°C932.84hPa73.17%923ppm2024-03-28 05:04:51
13961weather8080719.5°C932.42hPa73.43%885ppm2024-03-28 03:47:54
13960weather8080719.5°C932.29hPa73.44%876ppm2024-03-28 03:32:31
13959weather8080719.79°C933.14hPa74.05%805ppm2024-03-28 01:44:51
13958weather8080719.79°C933.2hPa74.05%830ppm2024-03-28 01:29:27
13957weather8080719.9°C933.44hPa74.24%859ppm2024-03-28 00:58:42
13956weather8080720°C933.29hPa74.57%889ppm2024-03-28 00:27:57
13955weather8080720.1°C933.31hPa75.05%938ppm2024-03-27 23:57:14
13954weather8080720.1°C933.07hPa75.7%1033ppm2024-03-27 23:26:28
13953weather8080720.4°C933.3hPa76.8%1183ppm2024-03-27 22:55:44
13952weather8080720.5°C933.48hPa75.49%1176ppm2024-03-27 22:25:00
13951weather8080720.6°C933.2hPa74.84%1053ppm2024-03-27 21:54:17
13950weather8080720.6°C932.88hPa74.85%1061ppm2024-03-27 21:23:31
13949weather8080720.8°C933.07hPa75.7%1094ppm2024-03-27 20:52:46
13948weather8080720.9°C932.69hPa75.74%1248ppm2024-03-27 20:37:23
13947weather8080721.1°C932.55hPa76.7%1508ppm2024-03-27 20:06:40
13946weather8080721.3°C931.7hPa76.29%1502ppm2024-03-27 19:35:56
13945weather8080721.3°C931.54hPa76.25%1574ppm2024-03-27 19:20:33
13944weather8080721.6°C930.96hPa79.68%80ppm2024-03-27 18:49:48
13943weather8080721.5°C930.6hPa74.05%1401ppm2024-03-27 18:19:01
13942weather8080721.5°C930.07hPa74.02%1386ppm2024-03-27 18:03:39
13941weather8080721.5°C929.53hPa77.55%74ppm2024-03-27 17:32:53
13940weather8080721.2°C929.16hPa73.68%1454ppm2024-03-27 17:17:31
13939weather8080721.2°C928.78hPa73.72%1503ppm2024-03-27 17:02:08
13938weather8080721.1°C928.31hPa78.58%178ppm2024-03-27 16:31:21
13937weather8080720.9°C928hPa74.28%1775ppm2024-03-27 16:15:58
13936weather8080720.8°C927.77hPa74.25%1693ppm2024-03-27 16:00:36
13935weather8080720.9°C927.2hPa73.68%1583ppm2024-03-27 15:29:50
13934weather8080721°C925.9hPa78.23%43ppm2024-03-27 14:59:04
13933weather8080721.2°C925.42hPa77.84%31ppm2024-03-27 13:11:20
13932weather8080721.4°C925.9hPa72.55%1082ppm2024-03-27 11:54:24
13931weather8080721.4°C925.89hPa72.58%1066ppm2024-03-27 11:39:01
13930weather8080721.5°C926.59hPa71%772ppm2024-03-27 10:22:08
13929weather8080721°C926.87hPa71.01%747ppm2024-03-27 10:06:44
13928weather8080719.7°C926.69hPa69.5%662ppm2024-03-27 09:35:59
13927weather8080720.29°C926.68hPa74.84%1146ppm2024-03-27 09:05:15
13926weather8080719.6°C928.15hPa76%1059ppm2024-03-27 05:29:46
13925weather8080719.6°C928.35hPa76.02%1019ppm2024-03-27 05:14:22
13924weather8080719.79°C929.01hPa76.22%1076ppm2024-03-27 03:57:27
13923weather8080719.9°C929.02hPa76.23%1075ppm2024-03-27 03:42:05
13922weather8080720.29°C931.36hPa76.1%1226ppm2024-03-27 01:08:14
13921weather8080720.4°C931.25hPa76.09%1216ppm2024-03-27 00:52:51
13920weather8080720.5°C931.16hPa76.28%1253ppm2024-03-27 00:22:07
13919weather8080720.6°C931.58hPa76.26%1144ppm2024-03-26 23:35:57
13918weather8080720.7°C931.55hPa76.27%1255ppm2024-03-26 23:20:35
13917weather8080720.9°C931.58hPa80.34%24ppm2024-03-26 22:49:49
13916weather8080721°C931.68hPa80.4%15ppm2024-03-26 22:34:26
13915weather8080721.1°C931.74hPa80.69%63ppm2024-03-26 22:19:03
13914weather8080721.2°C931.74hPa80.91%168ppm2024-03-26 22:03:40
13913weather8080721.3°C931.64hPa81.34%205ppm2024-03-26 21:48:17
13912weather8080721.4°C931.7hPa80.37%89ppm2024-03-26 21:32:54
13911weather8080721.4°C931.7hPa80.33%35ppm2024-03-26 21:17:31
13910weather8080721.2°C931.84hPa80.46%15ppm2024-03-26 21:02:07
13909weather8080721.3°C931.79hPa80.11%9ppm2024-03-26 20:46:45
13908weather8080721.1°C931.73hPa75.02%1093ppm2024-03-26 20:00:34
13907weather8080721.2°C931.75hPa75.01%1251ppm2024-03-26 19:45:11
13906weather8080721.1°C931.82hPa74.32%1063ppm2024-03-26 18:59:03
13905weather8080721°C931.9hPa74.33%1074ppm2024-03-26 18:43:39
13904weather8080720.8°C932.38hPa79.2%65ppm2024-03-26 17:42:09
13903weather8080720.7°C932.29hPa78.59%65ppm2024-03-26 17:26:46
13902weather8080720.9°C932.71hPa78.21%5ppm2024-03-26 17:11:23
13901weather8080721.3°C936.43hPa65.38%721ppm2024-03-26 11:17:30